This demonstration page uses our WeatherBlox Daily Observations layout. Learn more.

Left ArrowRight Arrow

Hourly Observations for September 19, 2019

Temp ( °F °C ) Dew Point ( °F °C ) Humidity (%) Winds ( mph kmh ) Pressure ( in mb ) Visibility ( mi km ) Precip ( " mm )
12:59 am 00:59 Partly Cloudy 67 19.4 52 11.1 59 59 ENE 17 28 30.22 1023 10 16 0.00 0.00
1:59 am 01:59 Mostly Clear 66 18.9 51 10.6 59 59 ENE 15 24 30.22 1023 10 16 0.00 0.00
2:59 am 02:59 Mostly Clear 66 18.9 50 10 56 56 NE 15 24 30.22 1023 10 16 0.00 0.00
3:59 am 03:59 Partly Cloudy 66 18.9 52 11.1 61 61 ENE 16 26 30.22 1024 10 16 0.00 0.00
4:59 am 04:59 Mostly Clear 65 18.3 49 9.4 56 56 NE 15 24 30.23 1024 10 16 0.00 0.00
5:59 am 05:59 Partly Cloudy 65 18.3 51 10.6 61 61 NE 16 26 30.24 1024 10 16 0.00 0.00
6:59 am 06:59 Mostly Cloudy 65 18.3 51 10.6 61 61 NE 15 24 30.26 1025 10 16 0.00 0.00
7:59 am 07:59 Mostly Cloudy 66 18.9 52 11.1 61 61 NE 17 28 30.27 1025 10 16 0.00 0.00
8:59 am 08:59 Mostly Cloudy 67 19.4 52 11.1 59 59 NE 18 30 30.28 1025 N/A 0.00 0.00
9:59 am 09:59 Mostly Cloudy 68 19.8 52 11.3 58 58 NE 12 19 30.29 1026 10 16 0.00 0.00
10:59 am 10:59 Cloudy 67 19.4 52 11.1 59 59 NE 15 24 30.31 1026 10 16 0.00 0.00
11:59 am 11:59 Cloudy 68 20 53 11.7 59 59 NE 14 22 30.32 1027 10 16 0.00 0.00
12:59 pm 12:59 Mostly Cloudy 69 20.6 52 11.1 55 55 E 9 15 30.31 1026 10 16 0.00 0.00
1:59 pm 13:59 Partly Cloudy 71 21.7 53 11.7 53 53 NNE 14 22 30.30 1026 10 16 0.00 0.00
2:59 pm 14:59 Mostly Cloudy 72 22.2 54 12.2 53 53 NE 14 22 30.30 1026 10 16 0.00 0.00
3:59 pm 15:59 Mostly Cloudy 70 21.1 54 12.2 57 57 N 12 19 30.29 1026 10 16 0.00 0.00
4:59 pm 16:59 Mostly Cloudy 68 20 54 12.2 61 61 NNE 9 15 30.29 1026 10 16 0.00 0.00
5:59 pm 17:59 Mostly Cloudy 68 20 52 11.1 57 57 ENE 8 13 30.29 1026 10 16 0.00 0.00
6:59 pm 18:59 Mostly Cloudy 67 19.4 52 11.1 59 59 ENE 6 9 30.29 1026 10 16 0.00 0.00
7:59 pm 19:59 Mostly Cloudy 66 18.9 52 11.1 61 61 ENE 5 7 30.29 1026 10 16 0.00 0.00
8:59 pm 20:59 Mostly Cloudy 66 18.9 51 10.6 59 59 NE 7 11 30.32 1027 10 16 0.00 0.00
9:59 pm 21:59 Mostly Cloudy 65 18.3 51 10.6 61 61 NE 7 11 30.30 1026 10 16 0.00 0.00
10:59 pm 22:59 Mostly Cloudy 65 18.3 52 11.1 63 63 ENE 5 7 30.30 1026 10 16 0.00 0.00
11:59 pm 23:59 Partly Cloudy 61 16.1 53 11.7 75 75 E 3 6 30.29 1026 10 16 0.00 0.00

Powered by AerisWeather